EW7349 Weather Reports


time (UTC)temp
F
wind
direction
speed
knots
gust
knots
rain 1hr
in
rain 24hr
in
rain mn
in
humidity
%
barometer
mb
20230208160744 63 355 1.7 6.1 0.00 0.00 0.00 52 1024.3
20230208160008 62 92 0.9 6.1 0.00 0.00 0.00 54 1024.1
20230208155503 62 103 0.9 5.2 0.00 0.00 0.00 53 1024.1
20230208154956 61 98 0.9 3.5 0.00 0.00 0.00 54 1024.0
20230208154451 60 42 0.9 3.5 0.00 0.00 0.00 54 1024.0
20230208153944 60 355 0.9 3.5 0.00 0.00 0.00 55 1024.1
20230208153437 60 346 0.9 3.5 0.00 0.00 0.00 55 1024.0
20230208152931 59 72 0.9 3.5 0.00 0.00 0.00 55 1024.0
20230208152426 58 252 0.9 2.6 0.00 0.00 0.00 56 1024.0
20230208151921 58 96 0.9 1.7 0.00 0.00 0.00 55 1023.9
20230208151414 58 169 0.0 1.7 0.00 0.00 0.00 55 1023.9
20230208150908 57 274 0.9 3.5 0.00 0.00 0.00 56 1023.9
20230208150402 55 82 0.9 3.5 0.00 0.00 0.00 59 1024.0
20230208145856 53 192 0.9 1.7 0.00 0.00 0.00 63 1023.9
20230208145350 51 252 0.9 2.6 0.00 0.00 0.00 65 1023.9
20230208144844 51 291 0.9 1.7 0.00 0.00 0.00 66 1023.8
20230208144338 50 221 0.9 1.7 0.00 0.00 0.00 68 1023.7
20230208143832 50 255 0.9 2.6 0.00 0.00 0.00 70 1023.8
20230208143325 49 267 0.0 2.6 0.00 0.00 0.00 71 1023.6
20230208142820 49 217 0.0 1.7 0.00 0.00 0.00 72 1023.5
20230208142314 48 155 0.0 0.9 0.00 0.00 0.00 74 1023.5
20230208141808 48 155 0.0 0.9 0.00 0.00 0.00 73 1023.6
20230208141309 48 155 0.0 1.7 0.00 0.00 0.00 72 1023.4
20230208140808 48 155 0.0 1.7 0.00 0.00 0.00 72 1023.4
20230208140539 48 284 0.0 0.9 0.00 0.00 0.00 72 1023.4
20230208135806 47 284 0.0 0.9 0.00 0.00 0.00 75 1023.4
20230208135306 46 284 0.0 0.0 0.00 0.00 0.00 75 1023.3
20230208134802 46 284 0.9 1.7 0.00 0.00 0.00 75 1023.4
20230208134531 46 284 0.9 1.7 0.00 0.00 0.00 75 1023.1
20230208133758 46 175 0.0 0.0 0.00 0.00 0.00 75 1023.2
20230208133258 46 175 0.0 0.0 0.00 0.00 0.00 75 1023.1
20230208132754 46 175 0.0 0.0 0.00 0.00 0.00 74 1023.0
20230208132522 45 175 0.0 0.0 0.00 0.00 0.00 74 1023.0
20230208132411 45 175 0.0 0.0 0.00 0.00 0.00 74 1022.9
20230208131246 45 175 0.0 0.9 0.00 0.00 0.00 74 1022.8
20230208130747 45 175 0.0 0.9 0.00 0.00 0.00 73 1022.7
20230208130244 45 175 0.0 2.6 0.00 0.00 0.00 73 1022.5
20230208125741 45 175 0.0 2.6 0.00 0.00 0.00 73 1022.5
20230208125240 45 136 0.0 0.0 0.00 0.00 0.00 72 1022.6
20230208124737 45 136 0.0 0.9 0.00 0.00 0.00 72 1022.5
20230208124234 45 135 0.0 1.7 0.00 0.00 0.00 72 1022.4
20230208123735 45 135 0.9 2.6 0.00 0.00 0.00 71 1022.2
20230208123234 45 119 1.7 2.6 0.00 0.00 0.00 71 1022.2
20230208122735 46 95 0.9 2.6 0.00 0.00 0.00 70 1022.3
20230208122228 46 85 0.0 1.7 0.00 0.00 0.00 69 1022.0
20230208121956 46 108 0.0 0.0 0.00 0.00 0.00 69 1021.9
20230208121217 46 109 0.0 0.0 0.00 0.00 0.00 68 1021.8
20230208120711 46 115 0.0 0.0 0.00 0.00 0.00 67 1021.6
20230208120209 46 115 0.0 0.0 0.00 0.00 0.00 67 1021.5
20230208115709 46 115 0.0 0.0 0.00 0.00 0.00 67 1021.5
20230208115209 47 115 0.0 0.0 0.00 0.00 0.00 66 1021.2
20230208114711 47 115 0.0 0.0 0.00 0.00 0.00 66 1021.2
20230208114207 47 115 0.0 0.0 0.00 0.00 0.00 66 1021.3
20230208113707 47 115 0.0 0.0 0.00 0.00 0.00 66 1021.1
20230208113208 47 115 0.0 0.0 0.00 0.00 0.00 66 1021.1
20230208112707 47 115 0.0 0.0 0.00 0.00 0.00 66 1021.0
20230208112207 47 115 0.0 1.7 0.00 0.00 0.00 66 1021.0
20230208111704 47 115 0.0 1.7 0.00 0.00 0.00 66 1021.1
20230208111204 47 114 0.0 1.7 0.00 0.00 0.00 66 1020.9
20230208110704 47 121 0.0 0.9 0.00 0.00 0.00 66 1020.8
20230208110203 47 121 0.0 0.9 0.00 0.00 0.00 66 1020.7
20230208105704 47 80 0.0 0.0 0.00 0.00 0.00 66 1020.5
20230208105205 47 80 0.0 0.0 0.00 0.00 0.00 66 1020.4
20230208104704 47 80 0.0 0.0 0.00 0.00 0.00 67 1020.3
20230208104204 48 80 0.0 0.0 0.00 0.00 0.00 67 1020.3
20230208103704 48 80 0.0 0.0 0.00 0.00 0.00 67 1020.2
20230208103159 48 80 0.0 0.0 0.00 0.00 0.00 68 1020.1
20230208102658 48 80 0.0 0.0 0.00 0.00 0.00 66 1020.1
20230208102200 48 80 0.0 0.0 0.00 0.00 0.00 66 1020.2
20230208101659 48 80 0.0 0.0 0.00 0.00 0.00 66 1020.2
20230208101158 48 80 0.0 0.0 0.00 0.00 0.00 65 1020.1
20230208100701 48 80 0.0 0.0 0.00 0.00 0.00 64 1020.2
20230208100433 48 80 0.0 0.0 0.00 0.00 0.00 64 1020.1
20230208095930 48 80 0.0 0.0 0.00 0.00 0.00 64 1020.1
20230208095200 48 80 0.0 0.0 0.00 0.00 0.00 64 1020.1
20230208094653 48 80 0.0 0.0 0.00 0.00 0.00 64 1020.1
20230208094148 48 80 0.0 0.0 0.00 0.00 0.00 64 1020.1
20230208093641 49 80 0.0 0.0 0.00 0.00 0.00 63 1019.9
20230208093134 49 80 0.0 0.0 0.00 0.00 0.00 63 1019.9
20230208092900 49 80 0.0 0.0 0.00 0.00 0.00 62 1019.9
20230208092123 49 80 0.0 0.0 0.00 0.00 0.00 62 1020.0
20230208091618 49 80 0.0 0.0 0.00 0.00 0.00 62 1019.9
20230208091343 49 80 0.0 0.0 0.00 0.00 0.00 62 1019.9
20230208090606 49 80 0.0 0.0 0.00 0.00 0.00 61 1019.8
20230208090059 49 80 0.0 0.0 0.00 0.00 0.00 61 1019.9
20230208085558 49 80 0.0 0.0 0.00 0.00 0.00 61 1019.8
20230208085056 50 80 0.0 0.9 0.00 0.00 0.00 61 1019.7
20230208084556 50 80 0.0 0.9 0.00 0.00 0.00 60 1019.7
20230208084058 50 80 0.0 0.9 0.00 0.00 0.00 61 1019.7
20230208083555 50 80 0.0 0.9 0.00 0.00 0.00 60 1019.7
20230208083055 50 80 0.0 0.0 0.00 0.00 0.00 59 1019.6
20230208082551 51 80 0.0 0.0 0.00 0.00 0.00 59 1019.6
20230208082053 51 80 0.0 0.9 0.00 0.00 0.00 59 1019.7
20230208081550 51 80 0.0 1.7 0.00 0.00 0.00 59 1019.7
20230208081050 51 80 0.0 1.7 0.00 0.00 0.00 59 1019.9
20230208080550 51 80 0.0 0.0 0.00 0.00 0.00 58 1019.7
20230208080050 51 80 0.0 1.7 0.00 0.00 0.00 58 1019.7
20230208075546 51 88 0.9 2.6 0.00 0.00 0.00 59 1019.7
20230208075045 51 91 1.7 3.5 0.00 0.00 0.00 58 1019.8
20230208074545 51 104 1.7 3.5 0.00 0.00 0.00 58 1019.9
20230208074045 51 76 0.9 3.5 0.00 0.00 0.00 58 1019.7
20230208073819 52 79 1.7 3.5 0.00 0.00 0.00 58 1019.7
20230208073316 52 38 0.9 5.2 0.00 0.00 0.00 57 1019.3
20230208072816 51 315 0.9 5.2 0.00 0.00 0.00 57 1019.3
20230208072039 51 191 0.9 3.5 0.00 0.00 0.00 57 1019.2
20230208071532 51 290 1.7 3.5 0.00 0.00 0.00 58 1019.3
20230208071026 51 315 1.7 3.5 0.00 0.00 0.00 58 1019.3
20230208070520 51 304 0.9 2.6 0.00 0.00 0.00 57 1019.3
20230208070015 51 282 0.9 4.3 0.00 0.00 0.00 58 1019.3
20230208065508 51 294 1.7 5.2 0.00 0.00 0.00 57 1019.3
20230208065235 51 279 1.7 5.2 0.00 0.00 0.00 58 1019.4
20230208064457 51 295 0.9 2.6 0.00 0.00 0.00 58 1019.4
20230208063951 51 292 0.9 2.6 0.00 0.00 0.00 58 1019.4
20230208063445 51 290 0.9 5.2 0.00 0.00 0.00 58 1019.4
20230208062939 51 316 0.9 5.2 0.00 0.00 0.00 58 1019.4
20230208062934 51 329 0.9 6.1 0.00 0.00 0.00 57 1019.5
20230208061927 51 302 0.9 6.1 0.00 0.00 0.00 58 1019.4
20230208061422 51 276 0.9 2.6 0.00 0.00 0.00 58 1019.3
20230208060916 51 284 0.9 5.2 0.00 0.00 0.00 57 1019.3
20230208060409 51 306 0.9 5.2 0.00 0.00 0.00 58 1019.3
20230208060133 51 277 0.9 2.6 0.00 0.00 0.00 58 1019.4
20230208055357 51 267 0.9 4.3 0.00 0.00 0.00 58 1019.4
20230208054851 51 295 0.9 4.3 0.00 0.00 0.00 58 1019.4
20230208054346 51 313 0.9 2.6 0.00 0.00 0.00 58 1019.3
20230208053839 51 295 0.9 2.6 0.00 0.00 0.00 57 1019.4
20230208053605 51 278 0.9 6.1 0.00 0.00 0.00 58 1019.5
20230208052827 51 292 1.7 6.1 0.00 0.00 0.00 57 1019.5
20230208052321 51 271 0.9 3.5 0.00 0.00 0.00 58 1019.5
20230208051816 51 304 0.9 3.5 0.00 0.00 0.00 58 1019.5
20230208051309 51 267 0.9 5.2 0.00 0.00 0.00 58 1019.5
20230208051035 51 284 0.9 5.2 0.00 0.00 0.00 58 1019.6
20230208050759 51 304 0.9 5.2 0.00 0.00 0.00 57 1019.6
20230208045752 51 325 0.9 5.2 0.00 0.00 0.00 58 1019.6
20230208045747 51 284 0.9 6.1 0.00 0.00 0.00 57 1019.6
20230208044739 51 302 0.9 6.1 0.00 0.00 0.00 57 1019.6
20230208044234 51 305 0.9 3.5 0.00 0.00 0.00 57 1019.5
20230208043727 51 260 0.9 3.5 0.00 0.00 0.00 58 1019.5
20230208043220 51 286 0.9 3.5 0.00 0.00 0.00 58 1019.5
20230208042210 51 291 1.7 4.3 0.00 0.00 0.00 58 1019.7
20230208042205 51 280 0.9 4.3 0.00 0.00 0.00 59 1019.7
20230208041156 51 273 1.7 3.5 0.00 0.00 0.00 59 1019.8
20230208040652 51 304 1.7 4.3 0.00 0.00 0.00 59 1019.7
20230208040146 50 313 0.9 4.3 0.00 0.00 0.00 60 1019.7
20230208035639 50 321 0.9 6.1 0.00 0.00 0.00 60 1019.8
20230208035133 50 291 0.9 6.1 0.00 0.00 0.00 60 1019.7
20230208034627 50 261 0.9 4.3 0.00 0.00 0.00 61 1019.8
20230208034121 50 272 0.9 4.3 0.00 0.00 0.00 61 1019.9
20230208033616 50 302 0.0 3.5 0.00 0.00 0.00 61 1019.9
20230208033109 50 251 0.0 1.7 0.00 0.00 0.00 61 1020.0
20230208032834 50 249 0.0 1.7 0.00 0.00 0.00 62 1020.0
20230208032057 50 229 0.9 3.5 0.00 0.00 0.00 62 1020.0
20230208031551 50 311 0.9 3.5 0.00 0.00 0.00 61 1020.0
20230208031045 50 248 0.9 6.1 0.00 0.00 0.00 62 1020.1
20230208030542 50 256 0.9 6.1 0.00 0.00 0.00 62 1020.2
20230208030536 49 200 0.9 3.5 0.00 0.00 0.00 62 1020.3
20230208025526 49 277 0.9 1.7 0.00 0.00 0.00 62 1020.4
20230208025021 49 251 0.9 3.5 0.00 0.00 0.00 62 1020.4
20230208024515 49 323 0.9 3.5 0.00 0.00 0.00 62 1020.5
20230208024009 49 232 0.9 2.6 0.00 0.00 0.00 62 1020.7
20230208023733 49 221 0.0 2.6 0.00 0.00 0.00 63 1020.7
20230208022956 49 258 0.0 0.9 0.00 0.00 0.00 63 1020.5
20230208022451 49 257 0.0 3.5 0.00 0.00 0.00 63 1020.7
20230208021946 49 273 0.9 3.5 0.00 0.00 0.00 63 1020.7
20230208021438 48 195 0.9 5.2 0.00 0.00 0.00 64 1020.4
20230208020933 48 265 0.0 5.2 0.00 0.00 0.00 64 1020.3
20230208020426 48 262 0.9 2.6 0.00 0.00 0.00 64 1020.4
20230208015921 48 207 0.0 1.7 0.00 0.00 0.00 64 1020.5
20230208015414 48 211 0.0 1.7 0.00 0.00 0.00 64 1020.5
20230208014909 48 220 0.9 1.7 0.00 0.00 0.00 64 1020.5
20230208014403 48 311 0.0 1.7 0.00 0.00 0.00 65 1020.4
20230208013857 47 271 0.0 2.6 0.00 0.00 0.00 64 1020.5
20230208013351 47 255 0.0 3.5 0.00 0.00 0.00 65 1020.7
20230208012846 47 246 0.0 3.5 0.00 0.00 0.00 65 1020.8
20230208012612 47 270 0.0 2.6 0.00 0.00 0.00 64 1020.9
20230208011841 47 245 0.0 1.7 0.00 0.00 0.00 65 1021.0
20230208011337 47 269 0.0 1.7 0.00 0.00 0.00 64 1020.9
20230208010835 47 266 0.0 1.7 0.00 0.00 0.00 64 1021.0
20230208010337 48 286 0.0 1.7 0.00 0.00 0.00 64 1020.9
20230208010106 48 286 0.0 1.7 0.00 0.00 0.00 64 1021.0
20230208005332 48 301 0.0 0.9 0.00 0.00 0.00 64 1021.0
20230208004832 48 334 0.0 2.6 0.00 0.00 0.00 63 1021.1
20230208004333 48 336 0.0 2.6 0.00 0.00 0.00 63 1021.1
20230208003833 48 213 0.0 0.0 0.00 0.00 0.00 63 1021.0
20230208003333 48 213 0.0 0.0 0.00 0.00 0.00 62 1021.1
20230208002832 48 215 0.0 0.0 0.00 0.00 0.00 62 1021.2
20230208002332 48 215 0.0 0.0 0.00 0.00 0.00 61 1021.2
20230208001832 48 215 0.0 0.0 0.00 0.00 0.00 61 1021.2
20230208001607 49 215 0.0 1.7 0.00 0.00 0.00 61 1021.1
20230208001104 49 215 0.9 1.7 0.00 0.00 0.00 61 1021.1
20230208000331 49 215 0.0 1.7 0.00 0.00 0.00 60 1021.2
20230207235827 49 215 0.0 1.7 0.00 0.00 0.00 60 1021.2
20230207235329 49 215 0.0 0.0 0.00 0.00 0.00 59 1021.3
20230207234823 49 215 0.0 1.7 0.00 0.00 0.00 59 1021.2
20230207234318 50 215 0.0 1.7 0.00 0.00 0.00 58 1021.2
20230207233811 50 215 0.0 0.0 0.00 0.00 0.00 58 1021.2
20230207233537 50 215 0.0 0.0 0.00 0.00 0.00 57 1021.2
20230207232759 50 215 0.0 0.9 0.00 0.00 0.00 57 1021.1
20230207232253 50 215 0.0 1.7 0.00 0.00 0.00 56 1021.1
20230207231746 50 219 0.9 1.7 0.00 0.00 0.00 56 1020.9
20230207231512 51 221 0.0 1.7 0.00 0.00 0.00 56 1020.9
20230207230736 51 212 0.0 1.7 0.00 0.00 0.00 55 1020.9
20230207230237 51 215 0.0 0.9 0.00 0.00 0.00 55 1021.0
20230207225736 51 215 0.0 0.0 0.00 0.00 0.00 55 1021.2
20230207225235 51 215 0.0 0.9 0.00 0.00 0.00 54 1021.2
20230207225010 51 215 0.0 1.7 0.00 0.00 0.00 54 1021.2
20230207224237 52 215 0.9 3.5 0.00 0.00 0.00 54 1021.3
20230207223735 52 223 0.9 3.5 0.00 0.00 0.00 53 1021.2
20230207223238 52 243 0.9 2.6 0.00 0.00 0.00 53 1021.3
20230207222738 52 300 0.9 2.6 0.00 0.00 0.00 53 1021.4
20230207222232 52 221 0.9 2.6 0.00 0.00 0.00 53 1021.3
20230207221733 52 215 0.9 2.6 0.00 0.00 0.00 52 1021.3
20230207221502 52 207 1.7 7.0 0.00 0.00 0.00 52 1021.4
20230207220733 52 240 1.7 7.0 0.00 0.00 0.00 52 1021.4
20230207220233 52 254 1.7 5.2 0.00 0.00 0.00 52 1021.6
20230207215732 52 284 1.7 5.2 0.00 0.00 0.00 52 1021.7
20230207215231 52 263 0.9 3.5 0.00 0.00 0.00 52 1021.7
20230207215006 53 215 0.9 5.2 0.00 0.00 0.00 52 1021.6
20230207214234 53 213 1.7 8.7 0.00 0.00 0.00 51 1021.5
20230207213729 53 279 1.7 8.7 0.00 0.00 0.00 52 1021.5
20230207213229 53 266 1.7 6.1 0.00 0.00 0.00 51 1021.7
20230207212728 53 274 1.7 5.2 0.00 0.00 0.00 51 1021.8
20230207212229 53 245 1.7 7.8 0.00 0.00 0.00 51 1022.0
20230207211729 53 306 2.6 7.8 0.00 0.00 0.00 51 1021.9
20230207211500 53 240 2.6 7.8 0.00 0.00 0.00 50 1021.8
20230207210728 53 96 2.6 7.8 0.00 0.00 0.00 50 1022.0
20230207210229 53 355 1.7 6.1 0.00 0.00 0.00 51 1022.1
20230207205729 53 268 2.6 6.1 0.00 0.00 0.00 50 1022.0
20230207205224 53 244 2.6 4.3 0.00 0.00 0.00 50 1022.2
20230207204723 53 330 1.7 5.2 0.00 0.00 0.00 51 1022.2
20230207204225 53 319 1.7 7.0 0.00 0.00 0.00 50 1022.2
20230207203725 53 287 1.7 7.0 0.00 0.00 0.00 49 1022.4
20230207203224 53 326 1.7 6.1 0.00 0.00 0.00 49 1022.2
20230207202952 53 221 1.7 7.0 0.00 0.00 0.00 50 1022.4
20230207202221 53 232 1.7 7.0 0.00 0.00 0.00 50 1022.4
20230207201719 54 306 1.7 7.0 0.00 0.00 0.00 48 1022.4
20230207201220 53 277 1.7 5.2 0.00 0.00 0.00 51 1022.4
20230207200722 53 275 2.6 5.2 0.00 0.00 0.00 50 1022.4
20230207200221 53 254 2.6 5.2 0.00 0.00 0.00 49 1022.5
20230207195719 53 323 2.6 7.0 0.00 0.00 0.00 50 1022.4
20230207195451 53 233 2.6 7.0 0.00 0.00 0.00 50 1022.6
20230207194725 52 261 2.6 6.1 0.00 0.00 0.00 51 1022.7
20230207194221 52 333 2.6 6.1 0.00 0.00 0.00 51 1022.8
20230207193720 52 215 1.7 5.2 0.00 0.00 0.00 51 1022.9
20230207193214 52 5 2.6 7.8 0.00 0.00 0.00 51 1022.9
20230207192708 52 259 2.6 7.8 0.00 0.00 0.00 51 1022.9
20230207192202 53 259 2.6 6.1 0.00 0.00 0.00 50 1023.2
20230207191657 52 65 2.6 6.1 0.00 0.00 0.00 51 1023.2
20230207191150 51 284 2.6 6.1 0.00 0.00 0.00 52 1023.4
20230207190914 52 232 1.7 6.1 0.00 0.00 0.00 52 1023.4
20230207190136 51 37 1.7 6.1 0.00 0.00 0.00 52 1023.4
20230207185630 51 251 1.7 4.3 0.00 0.00 0.00 52 1023.6
20230207185123 51 223 2.6 8.7 0.00 0.00 0.00 52 1023.5
20230207184618 51 238 1.7 8.7 0.00 0.00 0.00 53 1023.8
20230207184343 51 185 1.7 4.3 0.00 0.00 0.00 52 1023.9
20230207183608 51 298 1.7 6.1 0.00 0.00 0.00 52 1024.0
20230207183100 51 209 1.7 6.1 0.00 0.00 0.00 52 1024.1
20230207182553 51 333 1.7 6.1 0.00 0.00 0.00 52 1024.1
20230207182048 51 326 2.6 6.1 0.00 0.00 0.00 52 1024.1
20230207181542 52 283 2.6 6.1 0.00 0.00 0.00 50 1024.1
20230207181036 54 262 2.6 7.0 0.00 0.00 0.00 49 1024.0
20230207180530 53 196 2.6 7.0 0.00 0.00 0.00 51 1024.2
20230207180023 52 201 1.7 6.1 0.00 0.00 0.00 51 1024.2
20230207175750 52 229 2.6 11.3 0.00 0.00 0.00 51 1024.5
20230207175011 51 242 1.7 11.3 0.00 0.00 0.00 52 1024.7
20230207174506 49 251 1.7 6.1 0.00 0.00 0.00 55 1025.0
20230207174000 50 240 1.7 5.2 0.00 0.00 0.00 54 1025.1
20230207173453 50 284 1.7 6.1 0.00 0.00 0.00 53 1025.1
20230207172948 51 227 1.7 6.1 0.00 0.00 0.00 54 1025.0
20230207172442 51 207 1.7 4.3 0.00 0.00 0.00 52 1025.4
20230207171936 51 198 1.7 5.2 0.00 0.00 0.00 53 1025.4
20230207171430 50 259 2.6 5.2 0.00 0.00 0.00 57 1025.4
20230207170924 50 244 2.6 10.4 0.00 0.00 0.00 55 1025.5
20230207170420 49 277 3.5 10.4 0.00 0.00 0.00 56 1025.8
20230207165912 48 195 2.6 7.0 0.00 0.00 0.00 58 1025.8
20230207165406 47 226 2.6 7.0 0.00 0.00 0.00 57 1026.0
20230207164901 47 290 2.6 7.8 0.00 0.00 0.00 58 1026.2
20230207164353 47 277 1.7 7.8 0.00 0.00 0.00 58 1026.2
20230207163848 46 269 1.7 7.8 0.00 0.00 0.00 61 1026.6
20230207163342 45 279 2.6 7.8 0.00 0.00 0.00 64 1026.7
20230207162836 45 248 2.6 6.1 0.00 0.00 0.00 62 1026.5
20230207162330 46 276 2.6 6.1 0.00 0.00 0.00 60 1026.7
20230207161823 46 286 2.6 7.0 0.00 0.00 0.00 63 1026.8
20230207161550 45 313 2.6 7.0 0.00 0.00 0.00 63 1027.0
20230207161042 45 227 2.6 7.0 0.00 0.00 0.00 63 1027.0